Terug naar catalogus

KUIPER-00611

ActiefCommunicatieLEO
NORAD 69771·PAYLOAD·🇺🇸 United States

Gelanceerd Jul 2, 2026 vanaf Cape Canaveral Space Force Station

Loading…

Volgende Passages (komende 24 uur)

TLE

VersSource: CelesTrak SupGP

Epoch: Sep 14, 2026, 20:35 UTC

1 69771C 26151J   26257.85810185  .00002039  00000+0  26688-3 0  2576
2 69771  51.8969 254.1282 0000657  60.1348 149.6839 14.79923231    16

Volg KUIPER-00611 in realtime met AllMySat

Download on the App Store